Location: Gazon
(48.1318°N, 1.2708°W)
Time: 02:35:37
(UTC+00:00)

Cosmos 2082 Rocket - Pass Details

Date: 18 September 2020
Orbit: 834 x 853 km, 71.0° (Epoch: 29 October)

Event Time Altitude Azimuth Distance (km) Brightness Sun altitude
Rises 20:38:47 0° 336° (NNW) 3,393 6.2 -24.2°
Reaches altitude 10° 20:41:37 10° 349° (N) 2,456 5.2 -24.6°
Maximum altitude 20:46:21 27° 46° (NE) 1,569 3.5 -25.2°
Enters shadow 20:46:32 27° 50° (NE) 1,571 3.4 -25.3°
